sat.trackr.live / text

‹ back to catalog

GLOBALSTAR M093

NORAD 39073 · 2013-005B

PAYLOAD ACTIVE UNKNOWN

§ Identity

Operator
Country
GLOB
Launch date
2013-02-06
Launch site
TYMSC
Launch vehicle
Mass (kg)
RCS (m²)
4.82

Purposes: comms

External: N2YO · Heavens-Above · Gunter

§ Orbital elements

Epoch: 2026-09-19T10:39:53.518752Z

Period
114.08 min
Inclination
52.0113°
Eccentricity
0.0000485
Mean motion
12.62267197 rev/d
Perigee alt
1,413.2 km
Apogee alt
1,414.0 km
Semi-major
7,791.7 km
B*
8.0928e-5
RAAN
309.7939°
Arg perigee
146.4860°
Mean anomaly
213.6037°
Rev number
62,876

§ Raw data

GLOBALSTAR M0931 39073U 13005B   26262.44436943 -.00000089  00000+0  80928-4 0  99942 39073  52.0113 309.7939 0000485 146.4860 213.6037 12.62267197628766

JSON: /api/v1/satellites/39073 · /tle

For live sub-satellite position, see the globe view (requires WebGL).

§ Visibility from observer

Set your observer location to see the next 7 days of passes ≥ 10°. The values pass through the URL so the page stays shareable.

No JS? Fill the form by hand. The geolocation button needs JavaScript.